sim
Sign-in with your pilot id or email,
or register
Callsign
Passwort

Schedule Details

Flight Number: RYR1146 (3)
Departure: Berlin Schonefeld Airport (EDDB) at 06:10
Arrival: Thessaloniki International Airport (LGTS) at 08:40
Route: Ryanair Passenger Schedule. Enter filed route here before submitting Pirep.

Weather Information
Getting current METAR information for EDDB 230650Z 14004KT 100V170 CAVOK 19/13 Q1027 NOSIG
Getting current METAR information for LGTS 230650Z 28004KT CAVOK 29/19 Q1020 NOSIG

Schedule Frequency

Route Map